TimeEDT,TemperatureF,Dew PointF,Humidity,Sea Level PressureIn,VisibilityMPH,Wind Direction,Wind SpeedMPH,Gust SpeedMPH,PrecipitationIn,Events,Conditions,WindDirDegrees,DateUTC
12:53 AM,61.0,55.9,83,30.07,8.0,Calm,Calm,-,N/A,,Clear,0,2013-08-20 04:53:00
1:53 AM,59.0,55.9,90,30.07,7.0,Calm,Calm,-,N/A,,Clear,0,2013-08-20 05:53:00
2:53 AM,59.0,55.9,90,30.07,7.0,Calm,Calm,-,N/A,,Clear,0,2013-08-20 06:53:00
3:53 AM,59.0,55.9,90,30.08,6.0,Calm,Calm,-,N/A,,Clear,0,2013-08-20 07:53:00
4:53 AM,59.0,55.0,87,30.08,6.0,Calm,Calm,-,N/A,,Clear,0,2013-08-20 08:53:00
5:53 AM,62.1,57.0,84,30.09,9.0,SSW,3.5,-,N/A,,Clear,210,2013-08-20 09:53:00
6:53 AM,63.0,57.0,81,30.10,9.0,SSW,3.5,-,N/A,,Clear,210,2013-08-20 10:53:00
7:53 AM,66.0,57.9,75,30.12,9.0,SSW,3.5,-,N/A,,Partly Cloudy,210,2013-08-20 11:53:00
8:53 AM,69.1,60.1,73,30.13,9.0,SW,5.8,-,N/A,,Clear,230,2013-08-20 12:53:00
9:53 AM,75.0,63.0,66,30.13,9.0,WSW,4.6,-,N/A,,Clear,240,2013-08-20 13:53:00
10:53 AM,80.1,64.0,58,30.14,10.0,WSW,6.9,-,N/A,,Clear,240,2013-08-20 14:53:00
11:53 AM,82.9,64.9,54,30.14,10.0,West,6.9,-,N/A,,Clear,260,2013-08-20 15:53:00
12:53 PM,84.9,63.0,48,30.14,10.0,WSW,12.7,-,N/A,,Mostly Cloudy,250,2013-08-20 16:53:00
1:53 PM,86.0,61.0,43,30.12,10.0,SW,6.9,18.4,N/A,,Partly Cloudy,230,2013-08-20 17:53:00
2:53 PM,86.0,61.0,43,30.11,10.0,SSW,12.7,-,N/A,,Clear,200,2013-08-20 18:53:00
3:53 PM,87.1,61.0,41,30.09,10.0,SW,9.2,-,N/A,,Partly Cloudy,220,2013-08-20 19:53:00
4:53 PM,86.0,62.1,44,30.08,10.0,SW,6.9,-,N/A,,Clear,230,2013-08-20 20:53:00
5:53 PM,84.9,60.1,43,30.07,10.0,SW,6.9,-,N/A,,Clear,220,2013-08-20 21:53:00
6:53 PM,84.0,62.1,47,30.07,10.0,SW,4.6,-,N/A,,Clear,220,2013-08-20 22:53:00
7:53 PM,81.0,63.0,54,30.08,10.0,SSW,4.6,-,N/A,,Clear,210,2013-08-20 23:53:00
8:53 PM,78.1,63.0,60,30.09,10.0,SSW,4.6,-,N/A,,Clear,200,2013-08-21 00:53:00
9:53 PM,75.0,63.0,66,30.10,10.0,SSW,4.6,-,N/A,,Clear,210,2013-08-21 01:53:00
10:53 PM,72.0,63.0,73,30.10,10.0,SSW,4.6,-,N/A,,Clear,210,2013-08-21 02:53:00
11:53 PM,70.0,63.0,78,30.11,9.0,SSW,4.6,-,N/A,,Clear,200,2013-08-21 03:53:00